This demonstration page uses our WeatherBlox Daily Observations layout. Learn more.

Left ArrowRight Arrow

31.31129, -92.44514

Hourly Observations for August 5, 2016

Temp ( °F °C ) Dew Point ( °F °C ) Humidity (%) Winds ( mph kmh ) Pressure ( in mb ) Visibility ( mi km ) Precip ( " mm )
12:53 am 00:53 Clear 79 26.1 75 23.9 88 88 SSE 3 6 29.93 1014 9 14 0.00 0.00
1:53 am 01:53 Clear 78 25.6 76 24.4 93 93 SSE 3 6 29.93 1014 7 11 0.00 0.00
2:53 am 02:53 Clear 77 25 76 24.4 96 96 SSE 3 6 29.93 1014 7 11 0.00 0.00
3:53 am 03:53 Clear with Mist and Fog 77 25 75 23.9 94 94 SSE 3 6 29.95 1014 6 10 0.00 0.00
4:53 am 04:53 Clear with Mist and Fog 76 24.4 75 23.9 97 97 SSE 3 6 29.95 1014 6 10 0.00 0.00
5:53 am 05:53 Clear with Mist and Fog 76 24.4 75 23.9 97 97 Calm 29.96 1015 6 10 0.00 0.00
6:53 am 06:53 Sunny with Mist and Fog 77 25 75 23.9 94 94 Calm 29.97 1015 6 10 0.00 0.00
7:53 am 07:53 Sunny with Mist and Fog 79 26.1 77 25 94 94 Calm 29.98 1015 6 10 0.00 0.00
8:53 am 08:53 Sunny 84 28.9 78 25.6 82 82 WSW 5 7 29.98 1015 9 14 0.00 0.00
9:53 am 09:53 Sunny 87 30.6 78 25.6 75 75 WNW 7 11 29.98 1015 10 16 0.00 0.00
10:53 am 10:53 Sunny 90 32.2 77 25 66 66 NW 6 9 29.98 1015 10 16 0.00 0.00
11:53 am 11:53 Sunny 92 33.3 76 24.4 60 60 WNW 6 9 29.97 1015 10 16 0.00 0.00
12:53 pm 12:53 Sunny 94 34.4 76 24.4 56 56 VRB 3 6 29.96 1015 10 16 0.00 0.00
1:53 pm 13:53 Partly Cloudy 97 36.1 76 24.4 51 51 Calm 29.94 1014 10 16 0.00 0.00
2:53 pm 14:53 Sunny 96 35.6 74 23.3 49 49 Calm 29.92 1013 10 16 0.00 0.00
3:44 pm 15:44 Partly Cloudy with Thunderstorms 89 31.7 74 23.3 61 61 NNW 3 6 29.91 1013 10 16 0.00 0.00
3:53 pm 15:53 Partly Cloudy with Thunderstorms 90 32.2 72 22.2 56 56 WNW 5 7 29.92 1013 10 16 0.00 0.00
4:02 pm 16:02 Partly Cloudy with Nearby Thunderstorms 89 31.7 73 22.8 59 59 VRB 3 6 29.91 1013 10 16 0.00 0.00
4:13 pm 16:13 Partly Cloudy 88 31.1 76 24.4 68 68 SSW 6 9 29.91 1013 10 16 0.00 0.00
4:53 pm 16:53 Mostly Sunny 87 30.6 76 24.4 70 70 SW 3 6 29.93 1014 10 16 0.00 0.00
5:14 pm 17:14 Sunny with Nearby Thunderstorms 88 31.1 77 25 70 70 Calm 29.91 1013 10 16 0.00 0.00
5:29 pm 17:29 Sunny 90 32.2 77 25 66 66 Calm 29.91 1013 10 16 0.00 0.00
5:53 pm 17:53 Sunny 89 31.7 77 25 68 68 Calm 29.93 1013 10 16 0.00 0.00
6:53 pm 18:53 Sunny 86 30 77 25 75 75 SSE 6 9 29.93 1014 10 16 0.00 0.00
7:53 pm 19:53 Sunny 82 27.8 76 24.4 82 82 SE 6 9 29.92 1013 10 16 0.00 0.00
8:53 pm 20:53 Clear 80 26.7 76 24.4 87 87 SSE 5 7 29.94 1014 10 16 0.00 0.00
9:53 pm 21:53 Clear 79 26.1 76 24.4 90 90 Calm 29.95 1014 10 16 0.00 0.00
10:53 pm 22:53 Clear 78 25.6 76 24.4 93 93 SSW 3 6 29.94 1014 9 14 0.00 0.00
11:53 pm 23:53 Clear 77 25 75 23.9 94 94 Calm 29.94 1014 9 14 0.00 0.00

Powered by AerisWeather